This is the latest recevied weather packets stored in our database for station/object W2SRH. If no packets are shown the sender has not sent any weather packets the latest 1 day(s).
| Time | Temp. | Humidity | Pressure | Rain* | Wind** | Luminosity | Snow |
|---|---|---|---|---|---|---|---|
| 1778028544 | 23.33° C | 42% | 1001.4 hPa | 0 mm | 0 m/s | - | - |
| 1778027949 | 23.33° C | 41% | 1001.2 hPa | 0 mm | 0.45 m/s, 207° | - | - |
| 1778027345 | 23.89° C | 39% | 1001.1 hPa | 0 mm | 0.45 m/s, 199° | - | - |
| 1778026746 | 24.44° C | 37% | 1001 hPa | 0 mm | 0.45 m/s, 180° | - | - |
| 1778026146 | 24.44° C | 37% | 1000.9 hPa | 0 mm | 0.89 m/s, 213° | - | - |
| 1778025545 | 24.44° C | 37% | 1000.9 hPa | 0 mm | 0.45 m/s, 232° | - | - |
| 1778024944 | 25° C | 36% | 1000.7 hPa | 0 mm | 0.45 m/s, 198° | - | - |
| 1778024345 | 25° C | 36% | 1000.7 hPa | 0 mm | 0.89 m/s, 200° | - | - |
| 1778023746 | 25.56° C | 35% | 1000.6 hPa | 0 mm | 0.45 m/s, 162° | - | - |
| 1778023145 | 25.56° C | 35% | 1000.5 hPa | 0 mm | 0.89 m/s, 269° | - | - |
| 1778022546 | 25.56° C | 34% | 1000.5 hPa | 0 mm | 0.89 m/s, 207° | - | - |
| 1778021944 | 26.11° C | 34% | 1000.4 hPa | 0 mm | 1.34 m/s, 260° | - | - |
| 1778021344 | 26.67° C | 33% | 1000.4 hPa | 0 mm | 0.89 m/s, 187° | - | - |
| 1778020744 | 27.22° C | 31% | 1000.2 hPa | 0 mm | 1.34 m/s, 209° | - | - |
| 1778020145 | 27.22° C | 29% | 1000.1 hPa | 0 mm | 1.34 m/s, 221° | - | - |
| 1778019544 | 27.22° C | 29% | 1000.2 hPa | 0 mm | 0.89 m/s, 241° | - | - |
| 1778018944 | 27.78° C | 28% | 1000.1 hPa | 0 mm | 0.45 m/s, 211° | - | - |
| 1778018344 | 27.78° C | 27% | 1000 hPa | 0 mm | 1.34 m/s, 268° | - | - |
| 1778017745 | 27.78° C | 26% | 1000.2 hPa | 0 mm | 2.24 m/s, 242° | - | - |
| 1778017145 | 27.78° C | 26% | 1000.2 hPa | 0 mm | 1.79 m/s, 245° | - | - |
| 1778016546 | 27.78° C | 26% | 1000 hPa | 0 mm | 3.58 m/s, 240° | - | - |
| 1778015945 | 27.78° C | 25% | 1000.1 hPa | 0 mm | 3.13 m/s, 253° | - | - |
| 1778015346 | 28.33° C | 24% | 999.9 hPa | 0 mm | 3.13 m/s, 256° | - | - |
| 1778014744 | 28.33° C | 23% | 999.8 hPa | 0 mm | 1.79 m/s, 220° | - | - |
| 1778014145 | 28.33° C | 23% | 999.8 hPa | 0 mm | 2.24 m/s, 223° | - | - |
* Rain latest hour (hover to see other rain measurements)
** Current wind speed in m/s (hover to see current wind gust speed)